Weather History for Champaign, IL

Change the Weather History Date:

Wednesday, September 11, 2013

  Actual Average Record
Temperature  
Mean Temperature 83 °F 68 °F  
Max Temperature 95 °F 80 °F 95 °F (2013)
Min Temperature 70 °F 55 °F 48 °F (1998)
Degree Days  
Heating Degree Days 0 1  
Month to date heating degree days 0 8  
Since 1 July heating degree days 15 17  
Cooling Degree Days 18 4  
Month to date cooling degree days 117 53  
Year to date cooling degree days 970 880  
Growing Degree Days 32 (Base 50)    
Moisture  
Dew Point 66 °F    
Average Humidity 65    
Maximum Humidity 100    
Minimum Humidity 30    
Precipitation  
Precipitation 0.00 in 0.12 in 0.22 in (2008)
Month to date precipitation 0.01 1.37  
Year to date precipitation 24.22 28.65  
Sea Level Pressure  
Sea Level Pressure 30.06 in    
Wind  
Wind Speed 7 mph (SW)    
Max Wind Speed 17 mph    
Max Gust Speed 23 mph    
Visibility 8 miles    
Events      
T = Trace of Precipitation, MM = Missing Value Source: NWS Daily Summary

Daily Weather History Graph

Daily Weather History Graph

Search for Another Location

Airport:

Trip Planner

Search our weather history database for the weather conditions in past years. The results will help you decide how hot, cold, wet, or windy it might be!

Date:

Astronomy

Sep. 11, 2013 Rise Set
Actual Time 6:30 AM CDT 7:08 PM CDT
Civil Twilight 6:03 AM CDT 7:35 PM CDT
Nautical Twilight 5:30 AM CDT 8:07 PM CDT
Astronomical Twilight 4:57 AM CDT 8:40 PM CDT
Moon 12:58 PM CDT (9/11) 11:03 PM CDT (9/11)
Length of Visible Light 13h 32m
Length of Day
12h 37m
Waxing Crescent, 39% of the Moon is Illuminated
Sep 11
Waxing Crescent
Sep 12
First Quarter
Sep 19
Full
Sep 26
Last Quarter
Oct 4
New

Hourly Weather History & Observations

Time (CDT) Temp. Heat Index Dew Point Humidity Pressure Visibility Wind Dir Wind Speed Gust Speed Precip Events Conditions
12:53 AM 73.9 °F - 70.0 °F 87% 30.06 in 7.0 mi South 6.9 mph - N/A   Clear
1:53 AM 73.9 °F - 70.0 °F 87% 30.06 in 7.0 mi South 6.9 mph - N/A   Clear
2:53 AM 72.0 °F - 70.0 °F 93% 30.06 in 6.0 mi SSW 5.8 mph - N/A   Clear
3:53 AM 71.1 °F - 69.1 °F 93% 30.07 in 6.0 mi SSW 5.8 mph - N/A   Clear
4:53 AM 71.1 °F - 69.1 °F 93% 30.08 in 5.0 mi SSW 5.8 mph - N/A   Clear
5:53 AM 70.0 °F - 69.1 °F 97% 30.09 in 5.0 mi South 5.8 mph - N/A   Clear
6:53 AM 70.0 °F - 68.0 °F 93% 30.11 in 3.0 mi SSW 5.8 mph - N/A   Clear
7:53 AM 73.0 °F - 69.1 °F 87% 30.12 in 6.0 mi SSW 5.8 mph - N/A   Clear
8:53 AM 79.0 °F - 69.1 °F 72% 30.12 in 9.0 mi SW 5.8 mph - N/A   Clear
9:53 AM 84.0 °F 86.5 °F 66.9 °F 56% 30.11 in 10.0 mi West 9.2 mph - N/A   Clear
10:53 AM 89.1 °F 91.0 °F 64.9 °F 45% 30.10 in 10.0 mi WSW 8.1 mph - N/A   Clear
11:53 AM 91.9 °F 93.3 °F 64.0 °F 39% 30.09 in 10.0 mi West 11.5 mph 18.4 mph N/A   Clear
12:53 PM 93.9 °F 95.2 °F 63.0 °F 36% 30.07 in 10.0 mi West 13.8 mph 21.9 mph N/A   Clear
1:53 PM 95.0 °F 95.2 °F 61.0 °F 32% 30.06 in 10.0 mi West 10.4 mph 20.7 mph N/A   Clear
2:53 PM 93.9 °F 94.0 °F 61.0 °F 33% 30.04 in 10.0 mi West 12.7 mph 19.6 mph N/A   Partly Cloudy
3:53 PM 93.9 °F 92.9 °F 57.9 °F 30% 30.03 in 10.0 mi WSW 13.8 mph 23.0 mph N/A   Clear
4:53 PM 93.0 °F 94.2 °F 63.0 °F 37% 30.02 in 10.0 mi SW 9.2 mph 18.4 mph N/A   Clear
5:53 PM 90.0 °F 90.6 °F 63.0 °F 40% 30.02 in 10.0 mi WSW 8.1 mph - N/A   Clear
6:53 PM 82.9 °F 84.6 °F 64.9 °F 54% 30.02 in 10.0 mi SW 4.6 mph - N/A   Scattered Clouds
7:53 PM 78.1 °F - 66.0 °F 66% 30.03 in 10.0 mi SSW 4.6 mph - N/A   Scattered Clouds
8:53 PM 75.0 °F - 66.9 °F 76% 30.04 in 9.0 mi SSW 3.5 mph - N/A   Scattered Clouds
9:53 PM 73.9 °F - 66.0 °F 76% 30.03 in 10.0 mi SSW 4.6 mph - N/A   Scattered Clouds
10:53 PM 77.0 °F - 66.9 °F 71% 30.01 in 10.0 mi Calm Calm - N/A   Mostly Cloudy
11:53 PM 75.9 °F - 66.9 °F 74% 30.01 in 10.0 mi West 3.5 mph - N/A   Overcast